Location: Bühlhof
(48.7849°N, 8.6361°E)
Time: 17:58:11
(UTC+00:00)

Tiangong - Visible Passes

Search period start: 13 March 2026 00:00
Search period end: 23 March 2026 00:00
Orbit: 381 x 390 km, 41.5° (Epoch: 12 March)

Date Brightness Start Highest point End Pass type
(mag) Time Alt. Az. Time Alt. Az. Time Alt. Az.
13 Mar 0.6 04:22:39 10° S 04:23:56 12° SSE 04:25:12 10° SE visible
14 Mar 0.0 04:58:26 10° SW 05:00:47 19° S 05:03:08 10° ESE visible
15 Mar 0.1 04:00:44 15° S 04:01:25 16° SSE 04:03:27 10° SE visible
16 Mar -0.3 04:36:06 12° SW 04:38:14 21° S 04:40:44 10° ESE visible
17 Mar 0.0 03:39:12 18° SSE 03:39:12 18° SSE 03:41:06 10° ESE visible
18 Mar -0.4 04:14:26 18° SSW 04:15:29 22° S 04:18:01 10° SE visible
19 Mar 0.4 03:17:27 15° SE 03:17:27 15° SE 03:18:23 10° SE visible
19 Mar -0.1 04:49:55 10° WSW 04:52:09 18° SSW 04:54:23 10° SSE visible
20 Mar -0.4 03:52:38 20° S 03:52:38 20° S 03:54:59 10° SE visible
21 Mar 0.0 04:27:51 12° SW 04:29:03 14° SSW 04:30:49 10° SSE visible
22 Mar 0.4 03:30:53 13° SSE 03:30:53 13° SSE 03:31:35 10° SSE visible
